Haines, AK

8:20 AM AKDT on October 01, 2016 (GMT -0800)
Haines

Weather History for PAHN - November, 2012

Change the Weather History Date:

Monday, November 26, 2012

  Actual Average Record
Temperature  
Mean Temperature 22 °F -  
Max Temperature 26 °F 32 °F 52 °F (2002)
Min Temperature 17 °F 25 °F -8 °F (1985)
Degree Days  
Heating Degree Days 42    
Moisture  
Dew Point 15 °F    
Average Humidity 72    
Maximum Humidity 85    
Minimum Humidity 63    
Precipitation  
Precipitation 0.00 in - - ()
Sea Level Pressure  
Sea Level Pressure 30.33 in    
Wind  
Wind Speed 15 mph (NW)    
Max Wind Speed 20 mph    
Max Gust Speed 25 mph    
Visibility 10 miles    
Events Snow    
Averages and records for this station are not official NWS values.
T = Trace of Precipitation, MM = Missing Value Source: NWS Daily Summary

Daily Weather History Graph

Daily Weather History Graph

Search for Another Location

Airport or City:

Trip Planner

Search our weather history database for the weather conditions in past years. The results will help you decide how hot, cold, wet, or windy it might be!

Date:

Astronomy

Nov. 26, 2012 Rise Set
Actual Time 8:22 AM AKST 3:16 PM AKST
Civil Twilight 7:31 AM AKST 4:07 PM AKST
Nautical Twilight 6:38 AM AKST 5:00 PM AKST
Astronomical Twilight 5:49 AM AKST 5:48 PM AKST
Moon 2:26 PM AKST (11/26) 6:23 AM AKST (11/26)
Length of Visible Light 8h 36m
Length of Day
6h 54m
Waxing Gibbous, 97% of the Moon is Illuminated
Nov 26
Waxing Gibbous
Nov 28
Full
Dec 6
Last Quarter
Dec 12
New
Dec 19
First Quarter

Hourly Weather History & Observations

Time (AKST) Temp. Windchill Dew Point Humidity Pressure Visibility Wind Dir Wind Speed Gust Speed Precip Events Conditions
12:54 AM 21.9 °F 8.2 °F 17.1 °F 82% 30.35 in 10.0 mi WNW 16.1 mph 21.9 mph 0.00 in   Overcast
1:54 AM 21.9 °F 9.8 °F 18.0 °F 85% 30.36 in 9.0 mi NW 12.7 mph 17.3 mph 0.00 in   Overcast
2:54 AM 23.0 °F 10.1 °F 17.1 °F 78% 30.36 in 10.0 mi WNW 15.0 mph 23.0 mph 0.00 in   Overcast
3:54 AM 23.0 °F 10.6 °F 18.0 °F 81% 30.36 in 8.0 mi NW 13.8 mph 19.6 mph 0.00 in Snow Light Snow
4:54 AM 23.0 °F 10.1 °F 17.1 °F 78% 30.36 in 7.0 mi NW 15.0 mph 23.0 mph 0.00 in   Overcast
5:54 AM 21.9 °F 9.8 °F 17.1 °F 82% 30.36 in 9.0 mi NW 12.7 mph 23.0 mph 0.00 in   Overcast
6:54 AM 23.0 °F 8.7 °F 17.1 °F 78% 30.36 in 10.0 mi NW 18.4 mph 24.2 mph 0.00 in   Overcast
7:54 AM 23.0 °F 9.6 °F 16.0 °F 74% 30.36 in 10.0 mi WNW 16.1 mph 24.2 mph N/A   Overcast
8:54 AM 24.1 °F 10.6 °F 16.0 °F 71% 30.37 in 10.0 mi NW 17.3 mph 21.9 mph 0.00 in   Overcast
9:54 AM 24.1 °F 12.5 °F 15.1 °F 69% 30.38 in 10.0 mi NW 12.7 mph 23.0 mph N/A   Overcast
10:54 AM 25.0 °F 13.1 °F 16.0 °F 69% 30.38 in 10.0 mi NW 13.8 mph 23.0 mph N/A   Overcast
11:54 AM 25.0 °F 12.6 °F 15.1 °F 66% 30.37 in 10.0 mi NW 15.0 mph 23.0 mph N/A   Overcast
12:54 PM 26.1 °F 13.6 °F 16.0 °F 66% 30.36 in 10.0 mi WNW 16.1 mph 24.2 mph N/A   Overcast
1:54 PM 25.0 °F 13.1 °F 16.0 °F 69% 30.35 in 10.0 mi NW 13.8 mph 23.0 mph N/A   Overcast
2:54 PM 25.0 °F 13.6 °F 16.0 °F 69% 30.34 in 10.0 mi NW 12.7 mph 18.4 mph N/A   Scattered Clouds
3:54 PM 25.0 °F 14.2 °F 16.0 °F 69% 30.33 in 10.0 mi NW 11.5 mph 20.7 mph N/A   Clear
4:54 PM 24.1 °F 13.1 °F 16.0 °F 71% 30.31 in 10.0 mi NW 11.5 mph 20.7 mph N/A   Clear
5:54 PM 23.0 °F 13.1 °F 14.0 °F 68% 30.31 in 10.0 mi WNW 9.2 mph - N/A   Clear
6:54 PM 21.9 °F 8.7 °F 12.0 °F 66% 30.30 in 10.0 mi NW 15.0 mph - N/A   Clear
7:54 PM 19.9 °F 6.2 °F 10.9 °F 68% 30.29 in 10.0 mi WNW 15.0 mph - N/A   Clear
8:54 PM 21.9 °F 9.2 °F 10.9 °F 63% 30.28 in 10.0 mi NW 13.8 mph 21.9 mph N/A   Clear
9:54 PM 19.0 °F 3.2 °F 10.0 °F 68% 30.27 in 10.0 mi WNW 19.6 mph 25.3 mph N/A   Clear
10:54 PM 19.0 °F 4.5 °F 10.0 °F 68% 30.25 in 10.0 mi WNW 16.1 mph - N/A   Clear
11:54 PM 17.1 °F 1.0 °F 9.0 °F 71% 30.24 in 10.0 mi WNW 18.4 mph 24.2 mph N/A   Clear